Torna al catalogo

STARLINK-34998

AttivoComunicazioniVLEO
NORAD 65474·PAYLOAD·🇺🇸 United States

Lanciato Sep 3, 2025 da Cape Canaveral Space Force Station

Loading…

Prossimi Passaggi (prossime 24 ore)

TLE

AggiornatoSource: CelesTrak SupGP

Epoca: Sep 14, 2026, 15:33 UTC

1 65474C 25195S   26257.64840278 -.00012446  00000+0 -40024-3 0  2577
2 65474  53.1597 100.2135 0001357  91.3524  63.6912 15.31707636    17

Traccia STARLINK-34998 in tempo reale con AllMySat

Download on the App Store